Location: Civry
(47.2902°N, 4.6156°E)
Time: 21:31:10
(UTC+00:00)

STARLINK-1187 - Pass Details

Date: 09 April 2020
Orbit: 374 x 385 km, 53.0° (Epoch: 24 May)

Event Time Altitude Azimuth Distance (km) Brightness Sun altitude
Rises 19:55:30 0° 296° (WNW) 2,199 8.6 -15.4°
Reaches altitude 10° 19:57:34 10° 291° (WNW) 1,350 6.9 -15.7°
Maximum altitude 20:00:30 49° 215° (SW) 474 3.3 -16.1°
Enters shadow 20:01:11 39° 170° (S) 559 3.3 -16.2°
